Change the Weather History Date:

Tuesday, November 26, 2013

  Actual Average Record
Temperature  
Mean Temperature 79 °F -  
Max Temperature 80 °F 79 °F 86 °F (1948)
Min Temperature 77 °F 70 °F 55 °F (1950)
Cooling Degree Days 14    
Growing Degree Days 29 (Base 50)    
Moisture  
Dew Point 72 °F    
Average Humidity 78    
Maximum Humidity 90    
Minimum Humidity 74    
Precipitation  
Precipitation 0.23 in - - ()
Sea Level Pressure  
Sea Level Pressure 29.92 in    
Wind  
Wind Speed 15 mph (SSE)    
Max Wind Speed 21 mph    
Max Gust Speed 30 mph    
Visibility 9 miles    
Events Rain , Thunderstorm    
Averages and records for this station are not official NWS values.
T = Trace of Precipitation, MM = Missing Value Source: NWS Daily Summary

Daily Weather History Graph

Daily Weather History Graph

Search for Another Location

Airport or City:

Trip Planner

Search our weather history database for the weather conditions in past years. The results will help you decide how hot, cold, wet, or windy it might be!

Date:

Astronomy

Nov. 26, 2013 Rise Set
Actual Time 6:50 AM EST 5:37 PM EST
Civil Twilight 6:26 AM EST 6:02 PM EST
Nautical Twilight 5:58 AM EST 6:29 PM EST
Astronomical Twilight 5:30 AM EST 6:57 PM EST
Moon 12:33 AM EST (11/26) 1:06 PM EST (11/26)
Length of Visible Light 11h 35m
Length of Day
10h 46m
Last Quarter, 41% of the Moon is Illuminated
Nov 26
Last Quarter
Dec 2
New
Dec 9
First Quarter
Dec 17
Full
Dec 25
Last Quarter

Hourly Weather History & Observations

Time (EST) Temp. Heat Index Dew Point Humidity Pressure Visibility Wind Dir Wind Speed Gust Speed Precip Events Conditions
12:53 AM - - - N/A% 29.99 in 10.0 mi ESE 18.4 mph 24.2 mph N/A   Scattered Clouds
1:29 AM - - - N/A% 29.98 in 10.0 mi ESE 16.1 mph - N/A   Mostly Cloudy
1:39 AM - - - N/A% 29.98 in 10.0 mi ESE 12.7 mph 23.0 mph N/A   Scattered Clouds
1:53 AM - - - N/A% 29.97 in 10.0 mi ESE 15.0 mph - N/A   Scattered Clouds
2:53 AM - - - N/A% 29.96 in 10.0 mi SE 16.1 mph 24.2 mph N/A   Scattered Clouds
3:53 AM - - - N/A% 29.96 in 10.0 mi SE 15.0 mph - N/A   Partly Cloudy
4:53 AM - - - N/A% 29.95 in 10.0 mi SE 15.0 mph 21.9 mph N/A   Clear
5:53 AM - - - N/A% 29.95 in 10.0 mi SE 15.0 mph - N/A   Scattered Clouds
6:01 AM 78.8 °F - 71.6 °F 78% 29.95 in 10.0 mi SE 13.8 mph - N/A   Overcast
6:53 AM 78.8 °F - 71.6 °F 78% 29.96 in 10.0 mi SE 13.8 mph - N/A   Mostly Cloudy
7:53 AM 78.8 °F - 71.6 °F 78% 29.96 in 10.0 mi SE 12.7 mph - N/A   Mostly Cloudy
8:53 AM 80.6 °F 84.6 °F 71.6 °F 74% 29.97 in 10.0 mi ESE 13.8 mph - N/A   Mostly Cloudy
9:08 AM 80.6 °F 84.6 °F 71.6 °F 74% 29.97 in 8.0 mi SE 16.1 mph 21.9 mph 0.00 in Rain Light Rain
9:21 AM 80.6 °F 84.6 °F 71.6 °F 74% 29.97 in 10.0 mi SE 11.5 mph - 0.01 in   Mostly Cloudy
9:42 AM 80.6 °F 84.6 °F 71.6 °F 74% 29.97 in 9.0 mi SE 16.1 mph 23.0 mph 0.02 in Rain Light Rain
9:53 AM 80.6 °F 84.6 °F 71.6 °F 74% 29.97 in 10.0 mi SE 12.7 mph 20.7 mph 0.03 in   Mostly Cloudy
10:13 AM 80.6 °F 84.6 °F 71.6 °F 74% 29.97 in 6.0 mi SE 12.7 mph - 0.01 in Rain Light Rain
10:53 AM 80.6 °F 84.6 °F 71.6 °F 74% 29.96 in 10.0 mi SE 13.8 mph 20.7 mph 0.04 in   Mostly Cloudy
11:53 AM 80.6 °F 84.6 °F 71.6 °F 74% 29.94 in 10.0 mi South 12.7 mph - N/A   Mostly Cloudy
12:53 PM 80.6 °F 84.6 °F 71.6 °F 74% 29.90 in 10.0 mi SSE 13.8 mph - N/A   Mostly Cloudy
1:53 PM 80.6 °F 84.6 °F 71.6 °F 74% 29.87 in 10.0 mi SSE 12.7 mph - N/A   Mostly Cloudy
2:53 PM 80.6 °F 84.6 °F 71.6 °F 74% 29.86 in 10.0 mi South 13.8 mph - N/A   Mostly Cloudy
3:53 PM 80.6 °F 84.6 °F 71.6 °F 74% 29.85 in 10.0 mi South 10.4 mph - N/A   Mostly Cloudy
4:53 PM 80.6 °F 85.5 °F 73.9 °F 80% 29.84 in 10.0 mi South 8.1 mph - N/A   Mostly Cloudy
5:53 PM 78.8 °F - 73.9 °F 85% 29.85 in 10.0 mi South 6.9 mph - N/A   Mostly Cloudy
6:53 PM 78.8 °F - 75.0 °F 88% 29.85 in 10.0 mi South 6.9 mph - N/A   Mostly Cloudy
7:53 PM 78.8 °F - 75.0 °F 88% 29.86 in 10.0 mi South 9.2 mph - N/A   Mostly Cloudy
8:53 PM 77.0 °F - 73.9 °F 90% 29.86 in 10.0 mi SSW 15.0 mph - N/A   Mostly Cloudy
10:01 PM - - - N/A% 29.89 in - SSW 17.3 mph 27.6 mph N/A Thunderstorm Thunderstorm
10:53 PM - - - N/A% 29.89 in 7.0 mi WSW 20.7 mph 29.9 mph 0.01 in Thunderstorm Unknown
11:04 PM - - - N/A% 29.89 in 2.0 mi SW 17.3 mph - 0.09 in Thunderstorm Unknown
11:13 PM - - - N/A% 29.90 in 4.0 mi SW 16.1 mph 26.5 mph 0.11 in Thunderstorm Unknown
11:45 PM - - - N/A% 29.89 in 2.5 mi SSW 13.8 mph - 0.11 in Thunderstorm Mostly Cloudy
11:53 PM - - - N/A% 29.89 in 6.0 mi SSW 16.1 mph 24.2 mph 0.15 in Rain , Thunderstorm Thunderstorms and Rain
11:58 PM - - - N/A% 29.91 in 1.5 mi West 11.5 mph 24.2 mph 0.20 in Thunderstorm Unknown